Other Surface Observations
Issued by NWS Charleston, SC

Home | Current Version | Previous Version | Text Only | Print | Product List | Glossary On
Versions: 1 2 3 4 5 6 7 8 9 10 11 12 13 14 15 16 17 18 19 20 21 22 23 24 25 26 27 28 29 30 31 32 33 34 35 36 37 38 39 40 41 42 43 44 45 46 47 48 49 50
000
SXUS52 KCHS 011627
OSOCHS

MARINE OBSERVATIONS
NATIONAL WEATHER SERVICE CHARLESTON SC
1100 AM EST SUN MAR 01 2015

...DOWNTOWN CHARLESTON AND HARBOR...

CITY           SKY/WX    TMP DP  RH WIND       PRES   REMARKS
WATERFRONT PRK   N/A     43 N/A N/A NW8         N/A
FORT JOHNSON   NOT AVBL

...LAKE MOULTRIE...

CITY           SKY/WX    TMP DP  RH WIND       PRES   REMARKS
PINOPOLIS        N/A     39  37  93 N9        30.45  WCI  33

...LAKE AND SUPPLEMENTAL COASTAL OBSERVATIONS...

STATION/POSITION TIME  TEMP    WIND        PRES    WAVE   SWELL
                       AIR SEA DIR/SP/G            HT/PER HT/PER/DIR
                 (UTC) (F)     (DEG/KT/KT) (MB)    (FT/S) (FT/S/D)
FORT PULASKI     1600   43 48  350/  9/ 12 1032.6F
SAPELO ISLAND    1600   47      10/ 10     1031.0F
UPR LAKE MARION  NOT AVBL
WINYAH BAY       1500   43      40/  7     1031.0
LAKE MURRAY      1600   36      CALM  /  8 1033.5F
ACE BASIN NERRS  NOT AVBL


...C-MAN AND BUOY OBSERVATIONS...

STATION/POSITION TIME  TEMP    WIND        PRES    WAVE   SWELL
                       AIR SEA DIR/SP/G            HT/PER HT/PER/DIR
                 (UTC) (F)     (DEG/KT/KT) (MB)    (FT/S) (FT/S/D)
BUOY 41004       1550   70 68  140/ 17/ 21 1030.1F   8/ 8   3/ 9
BUOY 41008       1550   48 52   20/ 17/ 19 1031.1S   6/ 8   3/100/ 8
FOLLY BEACH CMAN 1600   43     340/  9/ 12 1032.7S
CAPERS NS BUOY   NOT AVBL
FRIPP NS BUOY    1500   43      10/ 16/ 17 1030.8F
5E ST. MARYS GA  1521      52                N/A     6/ 9   2/ 90/11


STATION/POSITION TIME  TEMP    WIND        PRES    WAVE   SWELL
                       AIR SEA DIR/SP/G            HT/PER HT/PER/DIR
                 (UTC) (F)     (DEG/KT/KT) (MB)    (FT/S) (FT/S/D)
FRYING PAN BUOY  1550   65 61  130/ 19/ 21 1030.9F   6/ 6
BUOY 41025       NOT AVBL
CAPE LOOKOUT NC  1600   55      90/  6/  8 1032.7F
BUOY 41002       1550   68 72  100/ 17/ 21 1033.1F   9/ 9   5/ 70/ 9
BUOY 41010       1520   71 74   90/ 19/ 25 1029.2F
ST AUGUSTINE FL  1600   52     360/ 16/ 18 1030.6F

$$



USA.gov is the U.S. government's official web portal to all federal, state and local government web resources and services.